TimeEST,TemperatureF,Dew PointF,Humidity,Sea Level PressureIn,VisibilityMPH,Wind Direction,Wind SpeedMPH,Gust SpeedMPH,PrecipitationIn,Events,Conditions,WindDirDegrees,DateUTC
12:54 AM,30.9,25.0,79,29.75,10.0,Variable,4.6,-,N/A,,Overcast,0,2013-03-02 05:54:00
1:03 AM,30.2,24.8,80,29.72,10.0,NW,4.6,-,N/A,,Overcast,310,2013-03-02 06:03:00
1:54 AM,30.0,23.0,75,29.74,10.0,Variable,3.5,-,N/A,,Overcast,0,2013-03-02 06:54:00
2:54 AM,30.0,24.1,79,29.74,10.0,WNW,3.5,-,N/A,,Overcast,290,2013-03-02 07:54:00
3:39 AM,30.2,24.8,80,29.72,10.0,NW,6.9,-,N/A,,Overcast,310,2013-03-02 08:39:00
3:50 AM,28.4,24.8,86,29.72,9.0,WNW,5.8,-,N/A,,Overcast,300,2013-03-02 08:50:00
3:54 AM,28.9,25.0,85,29.74,9.0,NW,4.6,-,N/A,,Overcast,310,2013-03-02 08:54:00
4:54 AM,30.0,24.1,79,29.74,10.0,Calm,Calm,-,N/A,,Overcast,0,2013-03-02 09:54:00
6:54 AM,30.0,23.0,75,29.74,10.0,WNW,4.6,-,N/A,,Overcast,300,2013-03-02 11:54:00
7:54 AM,30.0,21.0,69,29.75,10.0,Variable,6.9,-,N/A,,Overcast,0,2013-03-02 12:54:00
8:54 AM,28.9,23.0,78,29.75,10.0,West,10.4,-,N/A,,Overcast,270,2013-03-02 13:54:00
9:54 AM,30.0,23.0,75,29.74,10.0,West,8.1,-,N/A,,Overcast,280,2013-03-02 14:54:00
10:54 AM,30.9,24.1,76,29.74,10.0,WNW,6.9,-,N/A,,Overcast,300,2013-03-02 15:54:00
11:54 AM,30.9,23.0,72,29.73,10.0,WNW,9.2,-,0.00,,Overcast,300,2013-03-02 16:54:00
12:54 PM,34.0,23.0,64,29.71,10.0,NNW,8.1,-,N/A,,Overcast,330,2013-03-02 17:54:00
1:36 PM,33.8,23.0,65,29.67,10.0,NNW,11.5,17.3,N/A,,Overcast,340,2013-03-02 18:36:00
1:54 PM,34.0,24.1,67,29.70,10.0,NNW,9.2,-,N/A,,Overcast,340,2013-03-02 18:54:00
2:54 PM,33.1,25.0,72,29.70,7.0,NNW,8.1,-,N/A,,Overcast,330,2013-03-02 19:54:00
3:54 PM,33.1,25.0,72,29.70,3.0,North,10.4,-,0.00,Snow,Light Snow,350,2013-03-02 20:54:00
4:03 PM,32.0,24.8,75,29.68,2.0,North,10.4,-,0.00,Snow,Light Snow,350,2013-03-02 21:03:00
4:07 PM,32.0,24.8,75,29.68,1.8,NNW,8.1,-,0.00,Snow,Light Snow,340,2013-03-02 21:07:00
4:16 PM,32.0,26.6,80,29.68,2.0,NNW,9.2,-,0.00,Snow,Light Snow,330,2013-03-02 21:16:00
4:28 PM,32.0,26.6,80,29.68,3.0,NNW,6.9,-,0.00,Snow,Light Snow,330,2013-03-02 21:28:00
4:43 PM,30.2,24.8,80,29.68,3.0,NNW,6.9,-,0.00,Snow,Light Snow,330,2013-03-02 21:43:00
4:54 PM,30.9,25.0,79,29.71,5.0,NW,5.8,-,0.00,Snow,Light Snow,320,2013-03-02 21:54:00
5:54 PM,30.9,24.1,76,29.72,10.0,NW,4.6,-,0.00,,Overcast,310,2013-03-02 22:54:00
6:54 PM,30.0,24.1,79,29.73,10.0,NW,6.9,-,N/A,,Overcast,320,2013-03-02 23:54:00
7:54 PM,30.0,23.0,75,29.73,10.0,NW,6.9,-,N/A,,Overcast,310,2013-03-03 00:54:00
8:54 PM,28.9,21.9,75,29.75,10.0,NW,11.5,-,N/A,,Overcast,320,2013-03-03 01:54:00
9:54 PM,28.0,21.9,78,29.74,8.0,NNW,6.9,-,0.00,,Overcast,330,2013-03-03 02:54:00
10:41 PM,28.4,21.2,74,29.70,7.0,NW,5.8,-,0.00,,Overcast,320,2013-03-03 03:41:00
10:54 PM,28.0,21.9,78,29.73,4.0,NW,5.8,-,0.00,Snow,Light Snow,320,2013-03-03 03:54:00
11:38 PM,26.6,23.0,86,29.69,4.0,WNW,5.8,-,0.00,Snow,Light Snow,300,2013-03-03 04:38:00
11:54 PM,27.0,21.9,81,29.72,8.0,NW,3.5,-,0.00,,Overcast,310,2013-03-03 04:54:00